Retour au catalogue

STARLINK-4376

ActifCommunicationsSSO
NORAD 53216·PAYLOAD·🇺🇸 United States

Lancé Jul 22, 2022 depuis Vandenberg Space Force Base

Loading…

Prochains Passages (prochaines 24 heures)

TLE

FraisSource: CelesTrak SupGP

Époque: Sep 15, 2026, 02:10 UTC

1 53216C 22084AD  26258.09076389  .00042546  00000+0  13210-2 0  2585
2 53216  97.2842 312.9918 0001389  86.8632 269.8370 15.33410792    19

Suivez STARLINK-4376 en temps réel avec AllMySat

Download on the App Store